www.pogodaiklimat.ru
ПОГОДА в Бекли
Время
и дата
13:51 15.07
14:51 15.07
15:51 15.07
16:51 15.07
17:51 15.07
18:51 15.07
19:51 15.07
20:51 15.07
21:51 15.07
22:51 15.07
23:51 15.07
00:51 16.07
01:51 16.07
02:51 16.07
03:51 16.07
04:51 16.07
05:51 16.07
06:51 16.07
07:51 16.07
08:51 16.07
09:51 16.07
10:51 16.07
11:51 16.07
12:51 16.07
13:51 16.07
14:51 16.07
15:51 16.07
16:51 16.07
17:10 16.07
17:51 16.07
18:07 16.07
18:17 16.07
18:25 16.07
18:30 16.07
18:36 16.07
18:51 16.07
18:59 16.07
19:51 16.07
20:51 16.07
21:51 16.07
22:51 16.07
23:51 16.07
00:51 17.07
01:51 17.07
02:51 17.07
03:51 17.07
04:51 17.07
05:51 17.07
Ветер
(напр.,м/с)
Видим. Явления Облачность Т
(С)
Тd
(С)
f
(%)
Тe
(С)
Тes
(С)
Комфортность P
(гПа)
Po
(гПа)
Тmin
(С)
Tmax
(С)
R
(мм)
R24
(мм)
S
(см)
З 4
{8}
16 км 2/2 1650 м +32.2 +15.6 37 +35 +46 очень
душно
1014.5 929.9
З 4 16 км 2/2 1800 м +32.8 +15.6 36 +35 +45 душно 1013.7 929.3
З 5 16 км ясно +32.8 +15.0 34 +35 +42 душно 1012.8 928.4
СЗ 4 16 км 5/0 2100 m
[Ac]
+32.2 +15.6 37 +35 +39 очень
душно
1012.4 927.8
З 4 16 км ясно +30.6 +15.6 40 +33 +37 душно 1012.5 927.8
З 4 16 км ясно +30.0 +16.1 43 +33 +34 душно 1012.3 928.1 +30.0 +33.3
ЮЗ 2 16 км ясно +27.8 +16.7 51 +31 +32 душно 1012.6 928.4
Ю 4 16 км ясно +26.1 +16.7 56 +30 +30 душно 1012.4 928.1
ЮЗ 2 16 км ясно +25.6 +16.7 58 +29 +29 душно 1012.3 928.1
штиль 0 16 км ясно +24.4 +17.2 64 +28 +28 душно 1012.0 927.8
Ю 2 16 км ясно +24.4 +16.7 62 +28 +28 душно 1012.2 928.1
штиль 0 16 км ясно +22.8 +16.7 68 +27 +27 душно 1012.5 928.4 +22.8 +30.0
ЮЗ 2 16 км ясно +22.2 +16.7 71 +27 +27 душно 1012.9 928.7
ЮЗ 2 16 км ясно +22.2 +16.7 71 +27 +27 душно 1012.1 928.1
Ю 3 16 км ясно +22.2 +17.2 73 +27 +27 душно 1012.1 928.1
ЮЗ 3 16 км ясно +21.7 +17.2 76 +26 +26 душно 1012.4 928.4
ЮЗ 2 16 км 2/2 1440 м +22.8 +17.2 71 +28 +28 душно 1012.9 928.7
Ю 2 16 км 2/2 1050 м +23.9 +18.3 71 +28 +29 душно 1012.9 928.7 +21.7 +23.9
ЮЗ 3 16 км ясно +25.0 +18.3 66 +29 +32 душно 1013.5 929.0
ЮЗ 4 16 км ясно +27.2 +19.4 62 +33 +37 очень
душно
1013.5 929.0
З 5 16 км ясно +28.3 +18.9 57 +34 +39 очень
душно
1013.5 929.3
З 4 16 км 5/5 1140 м +29.4 +18.3 51 +34 +39 очень
душно
1013.2 929.0
ЮЗ 6
{10}
16 км 5/5 1350 м +31.1 +17.8 45 +35 +39 очень
душно
1012.5 928.4
ЮЗ 5 16 км 2/2 1800 м +32.2 +17.8 42 +36 +45 очень
душно
1011.8 927.8 +23.9 +32.2
З 4
{10}
16 км 2/2 1800 м +31.1 +16.7 42 +34 +45 душно 1011.5 927.5
З 5
{10}
16 км 8/5 1800 m
[Ac]
+32.8 +16.1 37 +36 +38 очень
душно
1010.6 926.9
З 6
{9}
16 км ясно +32.8 +16.1 37 +36 +41 очень
душно
1010.4 926.5
З 4 16 км гроза 2/0 2550 m
[Ac]
+31.7 +15.6 38 +34 +40 душно 1010.6 926.5
С 8
{11}
16 км 8/5 1950 m
[Ac]
+28.9 +17.2 49 +33 +33 очень
душно
927.2
С 7
{9}
16 км 8/0 2100 m
[Ac]
+26.1 +17.2 58 1012.7
СЗ 9
{14}
3 км сильный дождь 8/5 780 m
[Ac Ns]
+22.2 +19.4 84 +28 +28 душно 928.7
СЗ 5
{10}
2 км гроза, сильный дождь, дымка 8/8 330 m
[Cb]
+21.7 +19.4 87 +27 +27 душно 929.3
СЗ 7
{10}
2 км гроза, сильный дождь, дымка 10/10 330 m
[Cb]
+21.1 +19.4 90 +26 +26 душно 929.6
СЗ 5
{10}
1 км гроза, сильный дождь, дымка 10/10 330 m
[Cb]
+21.1 +19.4 90 +26 +26 душно 929.6
С 4
{9}
2 км гроза с сильным дождем, дымка 10/10 330 m
[Cb]
+20.6 +18.3 87 +25 +25 комфорт 929.3
штиль 0 3 км слабый дождь, дымка 10/8 270 m
[Ac Ns]
+20.0 +17.8 87 +23 +23 комфорт 1014.7 929.3 +20.0 +33.3 10.9
ЮВ 3 8 км слабый дождь, дымка 10/8 1380 m
[Ac Ns]
+20.0 +18.3 90 +23 +23 комфорт 929.3
ЮВ 3 13 км слабый дождь 8/0 3300 m
[Ac As]
+20.0 +18.9 93 +24 +24 комфорт 1014.1 928.7
Ю 2 16 км ясно +20.0 +18.3 90 +24 +24 комфорт 1013.9 929.0
ЮЗ 2 16 км ясно +20.0 +18.3 90 +24 +24 комфорт 1013.6 928.7 0.5
ЮВ 3 16 км 2/0 3600 m
[Ac]
+20.0 +17.8 87 +23 +23 комфорт 1012.7 928.1
штиль 0 13 км ясно +18.9 +17.8 93 +20 +20 1012.8 928.1
Ю 3 16 км ясно +18.9 +17.2 90 +20 +20 1012.4 927.8 +18.9 +20.6 0.5
ЮЗ 2 16 км ясно +19.4 +17.2 87 +22 +22 комфорт 1012.3 927.8
Ю 2 16 км ясно +18.3 +17.2 93 +19 +19 1011.9 927.5
ЮЗ 2 16 км ясно +19.4 +17.8 90 +22 +22 комфорт 1012.2 927.8
ЮЗ 3 16 км ясно +19.4 +17.8 90 +22 +22 комфорт 1012.7 928.1
Ю 3 16 км ясно +20.0 +18.3 90 +23 +23 комфорт 1014.0 928.7
Местоположение метеостанции Raleigh County Memorial Airport: широта 37.7950 долгота -81.1247 высота над уровнем моря 763 м.
В архиве по умолчанию представлена погода в Бекли за последние 1-2 суток. Обновление информации о фактической погоде в базе происходит ежечасно! Архивные данные за месяц целиком и за предыдущие месяцы Вы можете получить, выбрав интересующий диапазон дат из раскрывающегося списка и нажав кнопку "Ввод!".
Внимание! Архив погоды МЕТАР в базе сайта по станциям, не включенным в климатический монитор, хранится не более 60 дней. Нет смысла пытаться выбрать более раннюю дату.
*Определитесь, кто Вы:
Внимание! Время в таблицах - местное (без учета летнего времени). Для получения всемирного времени необходимо вычесть поправку, которая равна -5 ч.
Смотрите также архив погоды в соседних городах и на ближайших метеорологических станциях:
Партнеры нашего сайта:      
Пояснения к столбцам:
  • Ветер - указаны скорость ветра в м/с - средняя за 10 мин, порывы в срок и между сроками (в фигурных скобках) и направление, откуда дует ветер: С - северный,
  • СВ - северо-восточный, В - восточный, ЮВ - юго-восточный, Ю - южный, ЮЗ - юго-западный, З - западный, СЗ - северо-западный.
  • Видимость - горизонтальная дальность видимости в метрах или километрах. При видимости от 1 до 10 км при отсутствии осадков обычно наблюдается дымка, при ухудшении видимости до 1 км и менее - туман. В сухую погоду видимость может ухудшаться дымом, пылью или мглою.
  • Явления - указаны атмосферные явления, наблюдавшиеся в срок или в последний час перед сроком; фигурными скобками обозначены явления, наблюдавшиеся между сроками (за 1-3 часа до срока); квадратными скобками обозначены град или гололедные отложения с указанием их диаметра в мм.
  • Облачность - указаны через наклонную черту общая и нижняя облачность в баллах и высота нижней границы облаков в метрах; квадратными скобками обозначены формы облаков: Ci - перистые, Cs - перисто-слоистые, Cc - перисто-кучевые, Ac - высококучевые, As - высокослоистые, Sc - слоисто-кучевые, Ns - слоисто-дождевые, Cu - кучевые, Cb - кучево-дождевые. Подробнее классификацию облаков см. в Атласе облаков (PDF).
  • T - Температура воздуха - температура, измеренная на высоте 2 м над землей.
  • Td - Температура точки росы - температура, при понижении до которой содержащийся в воздухе водяной пар достигнет насыщения.
  • f - Относительная влажность воздуха - влажноcть воздуха, измеренная на высоте 2 м над землей.
  • Te - Эффективная температура - температура, которую ощущает одетый по сезону человек в тени. Характеристика душности погоды. При расчете учитывается влияние влажности воздуха и скорости ветра на теплоощущения человека.
  • Tes - Эффективная температура на солнце - температура, которую ощущает человек, с поправкой на солнечный нагрев. Характеристика знойности погоды. Зависит от высоты солнца над горизонтом, облачности и скорости ветра. Ночью, в пасмурную погоду, а также при ветре 12 м/с и более поправка равна нулю.
  • P - Атмосферное давление - приведенное к уровню моря атмосферное давление.
  • Po - Атмосферное давление - измеренное на уровне метеостанции атмосферное давление.
  • Tmin - Минимальная температура - минимум температуры воздуха на высоте 2 м над землей.
  • Tmax - Максимальная температура - максимум температуры воздуха на высоте 2 м над землей.
  • R - Количество осадков - Количество выпавших осадков за период времени, мм. При наведении курсора мыши на число - период времени, за который выпало указанное количество осадков.
  • R24 - Количество осадков - Количество выпавших осадков за 24 часа, мм.
  • S - Снежный покров - Высота снежного покрова, см. При наведении курсора мыши на число - состояние снежного покрова и степень покрытия местности в баллах.